Regional Weather Roundup
Issued by NWS

Home | Current Version | Previous Version | Text Only | Print | Product List | Glossary On
Versions: 1 2 3 4 5 6 7 8 9 10 11 12 13 14 15 16 17 18 19 20 21 22 23 24 25 26 27 28 29 30 31 32 33 34 35 36 37 38 39 40 41 42 43 44 45 46 47 48 49 50
000
ASUS43 KMPX 261601
RWRMN
WEATHER ROUNDUP FOR MINNESOTA
NATIONAL WEATHER SERVICE TWIN CITIES/CHANHASSEN MN
1100 AM CDT SUN APR 26 2015


NOTE: "FAIR" INDICATES FEW OR NO CLOUDS BELOW 12,000 FEET WITH NO
SIGNIFICANT WEATHER AND/OR OBSTRUCTIONS TO VISIBILITY. N/A MEANS
CURRENT SKY AND/OR WEATHER CONDITIONS ARE NOT AVAILABLE.

MNZ060>063-068>070-261700-
   Twin Cities Metro

CITY           SKY/WX    TMP DP  RH WIND       PRES   REMARKS
TWIN CITIES    SUNNY     51  25  36 E5        30.13R
ST PAUL        SUNNY     52  23  32 CALM      30.14R
CRYSTAL        SUNNY     51  24  34 VRB3      30.13R
LAKEVILLE      SUNNY     52  27  37 E3        30.12R
EDEN PRAIRIE   SUNNY     52  24  33 CALM      30.11R
SOUTH ST PAUL  SUNNY     51  23  32 CALM      30.13S
LAKE ELMO      FAIR      52  28  40 S5        30.14R
$$
MNZ001>005-007-008-013>017-022>024-027-028-261700-
   Northwest Minnesota

CITY           SKY/WX    TMP DP  RH WIND       PRES   REMARKS
BEMIDJI        SUNNY     52  20  27 E8        30.15S
HALLOCK        MOSUNNY   59  10  14 S13       30.13S
ROSEAU         SUNNY     57  25  28 CALM      30.15R
WARROAD        SUNNY     48  30  49 NE6       30.16S
THIEF RVR FALL SUNNY     55  18  22 S3        30.15S
CROOKSTON      SUNNY     57  12  17 S13       30.15R
FOSSTON        SUNNY     57  30  35 CALM      30.14S
DETROIT LAKES  SUNNY     52  18  25 S9        30.15R
MOORHEAD       SUNNY     57   7  13 SE8       30.14R
PARK RAPIDS    SUNNY     54  15  21 SE6       30.14R
MAHNOMEN       FAIR      54  17  23 S6        30.13S
$$
MNZ006-009>011-018-025>026-261700-
   North Central Minnesota

CITY           SKY/WX    TMP DP  RH WIND       PRES   REMARKS
BAUDETTE       SUNNY     53  17  24 SE3       30.16S
FLAG ISLAND    SUNNY     45  30  57 S7        30.17R
INTL FALLS     SUNNY     51  18  27 E5        30.18S
WASKISH        SUNNY     52  23  32 CALM      30.16S
BIG FORK       SUNNY     52  18  25 S3        30.17S
LONGVILLE      SUNNY     52  16  24 SE6       30.15F
GRAND RAPIDS   SUNNY     48  18  29 N7        30.17S
CRANE LAKE     SUNNY     48  16  27 N3        30.20F
ORR            SUNNY     52  14  22 CALM      30.15S
COOK           SUNNY     48  16  27 N6        30.17F
WALKER         FAIR      46  22  37 SE3       30.15S
$$
MNZ012-019>021-037-261700-
   Northeast Minnesota

CITY           SKY/WX    TMP DP  RH WIND       PRES   REMARKS
DULUTH         SUNNY     48  18  30 SE6       30.16R
ELY            SUNNY     48  18  29 NE7       30.16S
HIBBING        SUNNY     51  15  23 VRB7      30.16S
EVELETH        SUNNY     50  14  23 NE7       30.17S
DULUTH HARBOR  SUNNY     39  28  65 CALM      30.21R
TWO HARBORS    SUNNY     48  28  46 E7        30.16S
SILVER BAY     SUNNY     46  21  36 E8        30.17R
GRAND MARAIS     N/A     42  28  57 CALM      30.20R
G MARAIS ARPRT SUNNY     48  16  27 NW7       30.15S
$$
MNZ029>031-032-039>041-046>048-054>057-064-261700-
   West Central Minnesota

CITY           SKY/WX    TMP DP  RH WIND       PRES   REMARKS
FERGUS FALLS   SUNNY     55   1  11 SE7G21    30.14R
WHEATON        SUNNY     48  28  46 SE3       30.14R
MORRIS         SUNNY     55  28  35 SE8       30.11S
ALEXANDRIA     SUNNY     51  22  31 E9        30.14R
ELBOW LAKE     FAIR      52  23  31 E8        30.13R
WADENA         SUNNY     52  21  30 E8        30.13S
GLENWOOD       SUNNY     52  25  35 E9        30.13S
APPLETON       SUNNY     54  28  37 SE5       30.11S
BENSON         SUNNY     54  23  30 SE7       30.11S
ORTONVILLE     SUNNY     48  27  43 CALM      30.11S
MADISON        SUNNY     52  28  40 CALM      30.11S
WILLMAR        FAIR      52  30  43 NE10      30.13R
$$
MNZ033>034-036-042>043-049>051-058-059-261700-
   Central Minnesota

CITY           SKY/WX    TMP DP  RH WIND       PRES   REMARKS
ST CLOUD       SUNNY     49  24  37 E9        30.13S
SAUK CENTRE    FAIR      49  22  34 NE8       30.13S
PAYNESVILLE    SUNNY     46  24  42 N9        30.13S
AITKIN         SUNNY     52  10  19 NE7       30.14S
PINE RIVER     SUNNY     50  19  29 SE6       30.18S
BRAINERD       SUNNY     50  17  27 NE8       30.15S
STAPLES        SUNNY     52  18  25 E6        30.14S
LONG PRAIRIE   FAIR      50  25  37 NE6       30.14S
LITTLE FALLS   SUNNY     50  19  29 CALM      30.14R
LITCHFIELD     SUNNY     50  28  43 NE7       30.13R
BUFFALO        SUNNY     48  26  43 NE8       30.14S
MAPLE LAKE     SUNNY     50  29  44 NE6       30.14S
$$
MNZ037-044-045-052-053-261700-
   East Central Minnesota

CITY           SKY/WX    TMP DP  RH WIND       PRES   REMARKS
PRINCETON      SUNNY     50  27  40 NE7       30.14S
MORA           SUNNY     50  25  37 E5        30.16S
CAMBRIDGE      SUNNY     52  30  43 SE3       30.12S
RUSH CITY      SUNNY     50  24  36 CALM      30.14S
MOOSE LAKE     SUNNY     50  23  34 CALM      30.14S
HINCKLEY       FAIR      50  21  32 E7        30.15S
CLOQUET        SUNNY     48  12  23 SE8       30.16S
MCGREGOR       SUNNY     50  19  29 E5        30.16S
$$
MNZ071>073-080-081-089-090-097-098-261700-
   Southwest Minnesota

CITY           SKY/WX    TMP DP  RH WIND       PRES   REMARKS
MONTEVIDEO     SUNNY     55  30  38 E7        30.11F
GRANITE FALLS  SUNNY     52  29  40 CALM      30.12F
CANBY          SUNNY     50  32  49 CALM      30.12S
MARSHALL       SUNNY     50  28  43 E3        30.10S
REDWOOD FALLS  SUNNY     55  28  35 VRB5      30.10S
OLIVIA         SUNNY     52  28  40 NE6       30.10R
PIPESTONE      SUNNY     54  39  58 E5        30.07S
WORTHINGTON    SUNNY     54  36  50 N7        30.08S
JACKSON        SUNNY     55  30  38 N7        30.09R
TRACY          SUNNY     51  31  46 N7        30.10S
SLAYTON        SUNNY     53  33  46 CALM      30.10R
$$
MNZ065>067-074>077-082>085-091>093-261700-
   South Central Minnesota

CITY           SKY/WX    TMP DP  RH WIND       PRES   REMARKS
MANKATO        SUNNY     52  25  35 SE9       30.11R
NEW ULM        SUNNY     52  27  37 NE7       30.10R
ST JAMES       SUNNY     54  28  37 N6        30.10R
FAIRMONT       SUNNY     54  34  47 N6        30.08S
GLENCOE        SUNNY     51  33  49 NE5       30.11S
FARIBAULT      SUNNY     54  21  28 CALM      30.11S
OWATONNA       SUNNY     54  21  28 E7        30.10R
WASECA         SUNNY     52  27  37 E6        30.11S
ALBERT LEA     SUNNY     52  23  32 SE6       30.09S
$$
MNZ078>079-086>088-094>096-261700-
   Southeast Minnesota

CITY           SKY/WX    TMP DP  RH WIND       PRES   REMARKS
ROCHESTER      SUNNY     50  26  39 E8        30.12R
RED WING       SUNNY     52  21  30 S6        30.12S
STANTON        SUNNY     53  24  31 E6        30.11R
DODGE CENTER   SUNNY     52  30  43 E5        30.11R
WINONA         SUNNY     50  27  40 NE3       30.13R
AUSTIN         SUNNY     52  28  40 E7        30.10R
PRESTON        SUNNY     48  26  42 CALM      30.11R
$$
ABBREVIATIONS USED IN REMARKS
   TC - TEMPERATURES IN CELSIUS
  WCI - WIND CHILL INDEX
   HX - HEAT INDEX
  VSB - VISIBILITY
$$


USA.gov is the U.S. government's official web portal to all federal, state and local government web resources and services.